Weather History for Clarinda, IA

Change the Weather History Date:

Sunday, March 9, 2014

  Actual Average Record
Temperature  
Mean Temperature 42 °F -  
Max Temperature 62 °F 41 °F 62 °F (2014)
Min Temperature 21 °F 23 °F 8 °F (2003)
Degree Days  
Heating Degree Days 24    
Moisture  
Dew Point 29 °F    
Average Humidity 66    
Maximum Humidity 100    
Minimum Humidity 34    
Precipitation  
Precipitation 0.00 in - - ()
Sea Level Pressure  
Sea Level Pressure 30.06 in    
Wind  
Wind Speed 9 mph (South)    
Max Wind Speed 28 mph    
Max Gust Speed 36 mph    
Visibility 10 miles    
Events      
Averages and records for this station are not official NWS values.
T = Trace of Precipitation, MM = Missing Value Source: NWS Daily Summary

Daily Weather History Graph

Daily Weather History Graph

Search for Another Location

Airport:

Trip Planner

Search our weather history database for the weather conditions in past years. The results will help you decide how hot, cold, wet, or windy it might be!

Date:

Astronomy

Mar. 09, 2014 Rise Set
Actual Time 7:41 AM CDT 7:20 PM CDT
Civil Twilight 7:14 AM CDT 7:47 PM CDT
Nautical Twilight 6:42 AM CDT 8:19 PM CDT
Astronomical Twilight 6:10 AM CDT 8:51 PM CDT
Moon 1:12 PM CDT (3/9) 3:09 AM CDT (3/9)
Length of Visible Light 12h 33m
Length of Day
11h 38m
First Quarter, 61% of the Moon is Illuminated
Mar 9
First Quarter
Mar 16
Full
Mar 23
Last Quarter
Mar 30
New
Apr 7
First Quarter

Hourly Weather History & Observations

Time (CDT) Temp. Windchill Dew Point Humidity Pressure Visibility Wind Dir Wind Speed Gust Speed Precip Events Conditions
12:15 AM 21.2 °F 16.4 °F 19.4 °F 93% 30.31 in 10.0 mi SSW 3.5 mph - N/A   Clear
12:35 AM 21.2 °F 16.4 °F 19.4 °F 93% 30.30 in 10.0 mi SSW 3.5 mph - N/A   Clear
12:55 AM 23.0 °F 18.4 °F 21.2 °F 93% 30.30 in 10.0 mi SSW 3.5 mph - N/A   Clear
1:15 AM 23.0 °F - 21.2 °F 93% 30.30 in 10.0 mi Calm Calm - N/A   Clear
1:35 AM 23.0 °F - 21.2 °F 93% 30.30 in 10.0 mi Calm Calm - N/A   Clear
1:55 AM 23.0 °F - 21.2 °F 93% 30.29 in 10.0 mi Calm Calm - N/A   Clear
3:15 AM 23.0 °F 18.4 °F 21.2 °F 93% 30.28 in 10.0 mi South 3.5 mph - N/A   Clear
3:35 AM 23.0 °F 17.0 °F 21.2 °F 93% 30.27 in 10.0 mi South 4.6 mph - N/A   Clear
3:55 AM 23.0 °F 15.8 °F 21.2 °F 93% 30.25 in 10.0 mi South 5.8 mph - N/A   Clear
4:15 AM 23.0 °F 17.0 °F 21.2 °F 93% 30.25 in 10.0 mi SSW 4.6 mph - N/A   Clear
4:35 AM 23.0 °F 17.0 °F 23.0 °F 100% 30.24 in 10.0 mi South 4.6 mph - N/A   Clear
4:55 AM 24.8 °F 17.9 °F 23.0 °F 93% 30.24 in 10.0 mi South 5.8 mph - N/A   Clear
5:15 AM 23.0 °F 15.8 °F 21.2 °F 93% 30.24 in 10.0 mi South 5.8 mph - N/A   Clear
5:35 AM 23.0 °F 17.0 °F 21.2 °F 93% 30.24 in 10.0 mi South 4.6 mph - N/A   Clear
5:55 AM 23.0 °F 14.7 °F 21.2 °F 93% 30.23 in 10.0 mi South 6.9 mph - N/A   Clear
6:15 AM 24.8 °F 16.9 °F 23.0 °F 93% 30.23 in 10.0 mi South 6.9 mph - N/A   Clear
6:35 AM 24.8 °F 16.9 °F 21.2 °F 86% 30.23 in 10.0 mi South 6.9 mph - N/A   Clear
6:55 AM 24.8 °F 16.9 °F 23.0 °F 93% 30.23 in 10.0 mi South 6.9 mph - N/A   Clear
7:15 AM 24.8 °F 16.1 °F 21.2 °F 86% 30.22 in 10.0 mi South 8.1 mph - N/A   Clear
7:35 AM 24.8 °F 15.3 °F 23.0 °F 93% 30.21 in 10.0 mi South 9.2 mph - N/A   Clear
7:55 AM 24.8 °F 16.9 °F 23.0 °F 93% 30.21 in 10.0 mi South 6.9 mph - N/A   Clear
8:15 AM 26.6 °F 18.2 °F 23.0 °F 86% 30.21 in 10.0 mi South 8.1 mph - N/A   Clear
8:35 AM 28.4 °F 19.1 °F 24.8 °F 86% 30.20 in 10.0 mi South 10.4 mph - N/A   Clear
8:55 AM 30.2 °F 21.9 °F 26.6 °F 86% 30.20 in 10.0 mi South 9.2 mph - N/A   Clear
9:15 AM 32.0 °F 24.2 °F 26.6 °F 80% 30.20 in 10.0 mi South 9.2 mph - N/A   Clear
9:35 AM 33.8 °F 25.8 °F 26.6 °F 75% 30.19 in 10.0 mi South 10.4 mph - N/A   Clear
9:55 AM 35.6 °F 27.5 °F 26.6 °F 70% 30.17 in 10.0 mi South 11.5 mph - N/A   Clear
10:15 AM 39.2 °F 31.6 °F 26.6 °F 61% 30.17 in 10.0 mi SSW 12.7 mph 19.6 mph N/A   Clear
10:35 AM 41.0 °F 33.9 °F 26.6 °F 57% 30.15 in 10.0 mi SSW 12.7 mph - N/A   Clear
10:55 AM 42.8 °F 34.8 °F 28.4 °F 57% 30.13 in 10.0 mi SSW 17.3 mph 24.2 mph N/A   Clear
11:15 AM 44.6 °F 36.4 °F 28.4 °F 53% 30.12 in 10.0 mi SSW 20.7 mph - N/A   Clear
11:35 AM 44.6 °F 36.9 °F 28.4 °F 53% 30.12 in 10.0 mi SSW 18.4 mph - N/A   Clear
11:55 AM 44.6 °F 37.4 °F 30.2 °F 57% 30.11 in 10.0 mi South 16.1 mph - N/A   Clear
12:15 PM 46.4 °F 38.7 °F 30.2 °F 53% 30.09 in 10.0 mi South 20.7 mph 31.1 mph N/A   Clear
12:35 PM 48.2 °F - 32.0 °F 54% 30.05 in 10.0 mi South 17.3 mph 27.6 mph N/A   Clear
12:55 PM 50.0 °F - 33.8 °F 54% 30.04 in 10.0 mi South 21.9 mph 28.8 mph N/A   Clear
1:15 PM 51.8 °F - 33.8 °F 50% 30.03 in 10.0 mi South 20.7 mph 28.8 mph N/A   Clear
1:35 PM 53.6 °F - 33.8 °F 47% 30.02 in 10.0 mi SSW 23.0 mph 34.5 mph N/A   Clear
1:55 PM 53.6 °F - 33.8 °F 47% 29.99 in 10.0 mi SSW 27.6 mph 35.7 mph N/A   Clear
2:15 PM 55.4 °F - 35.6 °F 47% 29.98 in 10.0 mi SSW 20.7 mph 29.9 mph N/A   Clear
2:35 PM 57.2 °F - 35.6 °F 44% 29.96 in 10.0 mi SSW 23.0 mph 34.5 mph N/A   Clear
2:55 PM 59.0 °F - 35.6 °F 42% 29.95 in 10.0 mi SW 25.3 mph 32.2 mph N/A   Clear
3:15 PM 60.8 °F - 37.4 °F 42% 29.94 in 10.0 mi SW 19.6 mph 29.9 mph N/A   Clear
3:35 PM 60.8 °F - 35.6 °F 39% 29.92 in 10.0 mi SSW 21.9 mph 32.2 mph N/A   Clear
3:55 PM 62.6 °F - 35.6 °F 37% 29.92 in 10.0 mi SW 23.0 mph - N/A   Clear
4:15 PM 62.6 °F - 33.8 °F 34% 29.90 in 10.0 mi SSW 24.2 mph 32.2 mph N/A   Clear
4:35 PM 62.6 °F - 35.6 °F 37% 29.90 in 10.0 mi SSW 21.9 mph 27.6 mph N/A   Clear
4:55 PM 62.6 °F - 35.6 °F 37% 29.90 in 10.0 mi SSW 19.6 mph 27.6 mph N/A   Clear
5:15 PM 62.6 °F - 35.6 °F 37% 29.90 in 10.0 mi SSW 16.1 mph - N/A   Clear
5:35 PM 62.6 °F - 33.8 °F 34% 29.89 in 10.0 mi SW 16.1 mph 21.9 mph N/A   Clear
5:55 PM 62.6 °F - 33.8 °F 34% 29.90 in 10.0 mi SW 13.8 mph - N/A   Clear
6:15 PM 62.6 °F - 33.8 °F 34% 29.89 in 10.0 mi SW 16.1 mph - N/A   Clear
6:35 PM 59.0 °F - 33.8 °F 39% 29.90 in 10.0 mi SSW 12.7 mph 20.7 mph N/A   Clear
6:55 PM 57.2 °F - 33.8 °F 41% 29.89 in 10.0 mi SSW 11.5 mph - N/A   Clear
7:15 PM 53.6 °F - 33.8 °F 47% 29.89 in 10.0 mi South 10.4 mph - N/A   Clear
7:35 PM 50.0 °F - 33.8 °F 54% 29.88 in 10.0 mi South 10.4 mph - N/A   Clear
7:55 PM 48.2 °F - 33.8 °F 58% 29.88 in 10.0 mi South 9.2 mph - N/A   Clear
8:15 PM 48.2 °F - 33.8 °F 58% 29.88 in 10.0 mi South 9.2 mph - N/A   Clear
8:35 PM 48.2 °F - 32.0 °F 54% 29.88 in 10.0 mi South 8.1 mph - N/A   Clear
8:55 PM 46.4 °F 42.4 °F 32.0 °F 57% 29.88 in 10.0 mi South 8.1 mph - N/A   Clear
9:15 PM 46.4 °F 41.9 °F 32.0 °F 57% 29.87 in 10.0 mi South 9.2 mph - N/A   Clear
9:35 PM 46.4 °F 41.5 °F 33.8 °F 62% 29.87 in 10.0 mi South 10.4 mph - N/A   Clear
9:55 PM 46.4 °F 41.9 °F 33.8 °F 62% 29.87 in - South 9.2 mph - N/A   Clear
10:15 PM 46.4 °F 42.4 °F 33.8 °F 62% 29.88 in 10.0 mi South 8.1 mph - N/A   Clear
10:35 PM 46.4 °F 42.4 °F 33.8 °F 62% 29.88 in 10.0 mi South 8.1 mph - N/A   Clear
10:55 PM 46.4 °F 42.4 °F 33.8 °F 62% 29.88 in 10.0 mi South 8.1 mph - N/A   Clear
11:15 PM 46.4 °F 42.4 °F 33.8 °F 62% 29.88 in 10.0 mi South 8.1 mph - N/A   Clear
11:35 PM 46.4 °F 42.4 °F 33.8 °F 62% 29.88 in 10.0 mi South 8.1 mph - N/A   Clear
11:55 PM 46.4 °F 44.3 °F 33.8 °F 62% 29.87 in 10.0 mi SSE 4.6 mph - N/A   Clear
12:15 AM 44.6 °F 42.2 °F 33.8 °F 66% 29.87 in 10.0 mi SSE 4.6 mph - N/A   Clear
12:35 AM 44.6 °F 40.2 °F 33.8 °F 66% 29.86 in 10.0 mi South 8.1 mph - N/A   Clear
12:55 AM 42.8 °F 38.6 °F 33.8 °F 70% 29.86 in 10.0 mi South 6.9 mph - N/A   Clear